[keps] orb07186.2l.amsat

Ray Hoad r.hoad at att.net
Thu Jul 5 19:42:24 PDT 2007


SB KEPS @ AMSAT  $ORB07186.N
2Line Orbital Elements 07186.AMSAT

HR AMSAT ORBITAL ELEMENTS FOR AMATEUR SATELLITES IN NASA FORMAT
FROM WA5QGD FORT WORTH,TX July 5, 2007
Send SUBSCRIBE KEPS/UNSUBSCRIBE KEPS to majordomo at amsat.org only
BID: ORB07186.N

DECODE 2-LINE ELSETS WITH THE FOLLOWING KEY:
1 AAAAAU 00  0  0 BBBBB.BBBBBBBB  .CCCCCCCC  00000-0  00000-0 0  DDDZ
2 AAAAA EEE.EEEE FFF.FFFF GGGGGGG HHH.HHHH III.IIII JJ.JJJJJJJJKKKKKZ
KEY: A-CATALOGNUM B-EPOCHTIME C-DECAY D-ELSETNUM E-INCLINATION F-RAAN
G-ECCENTRICITY H-ARGPERIGEE I-MNANOM J-MNMOTION K-ORBITNUM Z-CHECKSUM

TO ALL RADIO AMATEURS BT

AO-07
1 07530U 74089B   07185.69891364 -.00000028  00000-0  10000-3 0  9175
2 07530 101.5125 223.1908 0011690 221.3030 138.7156 12.53572451493311
AO-10
1 14129U 83058B   07185.54227426 -.00000173  00000-0  10000-3 0  3950
2 14129 026.3897 268.6461 6064639 036.0462 352.5888 02.05869792180929
UO-11
1 14781U 84021B   07185.70642029  .00000317  00000-0  49610-4 0 04133
2 14781 098.1876 208.7438 0010152 111.9360 248.2959 14.79564748252322
RS-15
1 23439U 94085A   07185.89852740 -.00000039  00000-0  10597-3 0 00608
2 23439 064.8186 338.2766 0158783 187.5304 172.3231 11.27551930515690
FO-29
1 24278U 96046B   07185.87899804 -.00000060  00000-0 -25970-4 0 05599
2 24278 098.5513 143.1497 0351548 037.5204 324.9921 13.52930771537296
SO-33
1 25509U 98061B   07185.80933625 -.00000068  00000-0 -28074-4 0 09667
2 25509 031.4309 126.1106 0355743 221.4548 135.8586 14.28167228453776
AO-40
1 26609U 00072B   07186.65102934 -.00000002  00000-0  00000 0 0  8995
2 26609 005.8166 135.2164 7983130 337.1257 001.4667 01.25587521 30678
VO-52
1 28650U 05017B   07185.80674237 -.00000185  00000-0 -16829-4 0 06681
2 28650 097.8317 256.1301 0026938 193.7498 166.2956 14.81331185117026
PO-63
1 29712U 07001D   07186.63774486  .00000494  00000-0  72468-4 0  5169
2 29712 097.9201 245.5404 0015765 071.5766 288.7156 14.79748537 26067
AO-16
1 20439U 90005D   07185.84125114  .00000018  00000-0  21747-4 0 00747
2 20439 098.1955 179.4238 0011365 129.4722 230.7461 14.31764404911079
LO-19
1 20442U 90005G   07185.59726471  .00000048  00000-0  32945-4 0    00
2 20442 098.1789 188.5210 0012493 129.7337 230.4971 14.32004758911182
AO-27
1 22825U 93061C   07185.49026944  .00000047  00000-0  34863-4 0  7220
2 22825 098.3309 154.6175 0007702 205.9382 154.1436 14.29212259717968
IO-26
1 22826U 93061D   07185.81460247 -.00000019  00000-0  86790-5 0 04218
2 22826 098.3244 155.9913 0008195 202.6040 157.4782 14.29458337718097
PO-28
1 22829U 93061G   07185.48214233 -.00000104  00000-0 -24047-4 0 06984
2 22829 098.3129 156.8372 0009544 176.0188 184.1072 14.30158580718286
GO-32
1 25397U 98043D   07185.80741914  .00000144  00000-0  82364-4 0  3412
2 25397 098.4123 232.2487 0001509 138.8903 221.2395 14.23128435466665
MO-46
1 26548U 00057D   07185.58031165 -.00000153  00000-0 -74235-6 0 08376
2 26548 064.5561 128.8565 0013525 195.9246 164.1438 14.83155189366121
NO-44
1 26931U 01043C   07186.27951929  .00000141  00000-0  87345-4 0  6269
2 26931 067.0527 100.8852 0007709 265.0696 094.9533 14.29489515300689
SO-50
1 27607U 02058C   07185.79603053 -.00000104  00000-0  56099-5 0  3502
2 27607 064.5588 031.5714 0056258 355.1555 004.8950 14.71270101243713
CO-55
1 27844U 03031E   07185.57263703  .00000037  00000-0  37625-4 0   657
2 27844 098.7172 193.6348 0011006 044.4829 315.7243 14.20519712207943
CO-57
1 27848U 03031J   07185.59543179  .00000026  00000-0  32369-4 0   255
2 27848 098.7166 192.8466 0010733 047.4210 312.7859 14.20337857207921
AO-51
1 28375U 04025K   07185.65487976  .00000018  00000-0  17873-4 0  8548
2 28375 098.1108 224.0722 0084251 128.8545 232.0199 14.40573221158229
CO-56
1 28941U 06005C   07185.80100251  .00011183  24872-5  11917-3 0 04880
2 28941 098.1276 248.8647 0223367 210.3249 148.4918 15.40295153076140
HO-59
1 29484U 06041F   07186.42176911  .00034929  28880-5  23737-3 0  4731
2 29484 098.2820 238.9776 0203944 200.1684 159.1464 15.52093195 43909
NO-60
1 29661U 06055C   07150.05824307  .13324117  12618-4  10400-3 0  3000
2 29661 051.6186 176.5045 0007204 190.7749 188.7342 16.52052832 25544
NO-61
1 29664U 06055F   07186.62761480  .00034013  11645-4  10494-3 0  2692
2 29664 051.6311 355.1395 0011906 058.5361 301.6755 15.92792532 31097
CP4
1 31122U 07012F   07185.93067525  .00000595  00000-0  14251-3 0 00768
2 31122 098.0810 258.6338 0084607 330.8897 028.7545 14.55015558011434
CP3
1 31128U 07012M   07185.75749380 -.00000048  00000-0  00000-0 0 00724
2 31128 098.0815 258.0765 0102245 332.2801 027.2963 14.51844078011377
LIBERT
1 31129U 07012N   07186.64875770  .00000383  00000-0  10000-3 0  2005
2 31129 098.0820 258.9407 0102140 329.5766 029.9505 14.51936396 11487
NOAA-10
1 16969U 86073A   07186.45921130 -.00000093  00000-0 -19589-4 0  7169
2 16969 098.7433 203.6509 0013230 112.5041 247.7556 14.27328280 81838
NOAA-11
1 19531U 88089A   07186.30620437  .00000125  00000-0  87626-4 0  7145
2 19531 098.8125 275.2452 0011405 343.8518 016.2330 14.14847217968719
NOAA-12
1 21263U 91032A   07186.27141053 -.00000022  00000-0  93274-5 0  2105
2 21263 098.7519 183.4821 0013636 057.9925 302.2586 14.25541603838824
MET-3/5
1 21655U 91056A   07186.78495782  .00000051  00000-0  10000-3 0  2883
2 21655 082.5557 349.8022 0013525 156.8616 203.3118 13.17011893763851
MET-2/21
1 22782U 93055A   07185.65232790 -.00000006  00000-0 -19287-4 0 08693
2 22782 082.5466 028.0583 0022198 183.2719 176.8293 13.83618873698932
OKEAN-4
1 23317U 94066A   07186.47127846  .00000040  00000-0  20068-5 0  3070
2 23317 082.5401 279.4754 0021826 187.9443 172.1410 14.82515133686763
NOAA-14
1 23455U 94089A   07186.48087056 -.00000243  00000-0 -10450-3 0  6945
2 23455 098.9884 252.7632 0010092 053.1018 307.1080 14.13720783645228
SICH-1
1 23657U 95046A   07185.78160631  .00000304  00000-0  35560-4 0  1071
2 23657 082.5263 061.0665 0023527 181.3349 178.7807 14.81497954638639
NOAA-15
1 25338U 98030A   07186.08104307  .00000163  00000-0  88332-4 0   557
2 25338 098.5294 182.2585 0010295 343.4897 016.5958 14.24652697475237
RESURS
1 25394U 98043A   07186.75652544  .00000000  00000-0  18315-4 0  6806
2 25394 098.4386 240.5506 0002025 108.1753 251.9646 14.24139856466999
FENGYUN1
1 25730U 99025A   07186.47676021  .00000102  00000-0  84918-4 0  1615
2 25730 098.6873 169.6496 0021964 076.4525 283.9082 14.07543903420040
OKEAN-0
1 25860U 99039A   07185.61661931  .00000056  00000-0  15779-4 0 00956
2 25860 097.7299 187.0497 0001228 035.8250 324.3039 14.73461580428061
NOAA-16
1 26536U 00055A   07186.11200569  .00000085  00000-0  71080-4 0  4682
2 26536 099.1163 163.3653 0011361 120.3346 239.8937 14.12438023349635
NOAA-17
1 27453U 02032A   07186.43760383  .00000280  00000-0  14097-3 0  4803
2 27453 098.5784 255.3014 0012353 045.8159 314.4039 14.23892469261315
NOAA-18
1 28654U 05018A   07186.47648988  .00000147  00000-0  10592-3 0   167
2 28654 098.8289 127.4531 0013712 213.6771 146.3541 14.11075641109436
HUBBLE
1 20580U 90037B   07185.96971040  .00000259  00000-0  72073-5 0 09227
2 20580 028.4681 074.1658 0003630 278.0038 082.0140 15.00256368742630
UARS
1 21701U 91063B   07185.90617504  .00002662  00000-0  50443-4 0 01238
2 21701 056.9751 237.0307 0087980 223.5831 135.8255 15.48418341868497
PO-34
1 25520U 98064B   07185.87221578  .00000416  00000-0  10779-4 0  7719
2 25520 028.4603 350.3778 0005589 090.7259 269.3979 15.17016714480214
ISS
1 25544U 98067A   07186.99191168  .00016558  00000-0  95947-4 0  5265
2 25544 051.6357 006.7009 0008306 038.6485 044.4633 15.78696615493747
OO-38
1 26063U 00004C   07185.86961842 -.00000011  00000-0  16352-4 0 09529
2 26063 100.2266 191.7567 0037218 109.5637 250.9567 14.35809806389596
UWE-1
1 28892U 05043C   07186.65339348  .00000066  00000-0  23672-4 0  7886
2 28892 098.1302 082.9313 0018537 056.9601 303.3343 14.59518966 89900
CO-58
1 28895U 05043F   07186.70002984  .00000161  00000-0  43446-4 0  7672
2 28895 098.1313 083.1950 0018933 056.9237 303.3780 14.59565890 89790
NCUBE2
1 28897U 05043H   07186.29295078  .00000092  00000-0  28828-4 0  2941
2 28897 098.1304 082.7512 0018345 058.8075 301.4917 14.59728060 82018
NMARS
1 29662U 06055D   07126.39603970  .07031946  12599-4  11450-3 0  2632
2 29662 051.6121 302.3682 0004459 252.1654 110.7411 16.47981436 21652
FCAL
1 29667U 06055J   07186.69753801  .00015893  11174-4  66296-4 0  2021
2 29667 051.6329 357.1721 0014299 060.6298 299.6133 15.88823328 30947
FALCON
1 30776U 07006E   07185.92678199  .00000149  00000-0  13987-4 0 00883
2 30776 035.4328 105.1204 0001803 281.9933 078.0581 15.02729562017725
MAST
1 31126U 07012K   07185.74514332  .00000392  00000-0  10000-3 0 00745
2 31126 098.0815 258.2487 0094416 331.8343 027.7726 14.53350090011408
CAPE1
1 31130U 07012P   07186.44570039  .00000007  00000-0  12933-4 0   600
2 31130 098.0830 258.7396 0102526 330.1571 029.3798 14.51863464 11264
/EX






More information about the Keps mailing list